Change the Weather History Date:

Monday, August 20, 2012

  Actual Average Record
Temperature  
Mean Temperature 83 °F 83 °F  
Max Temperature 91 °F 90 °F 96 °F (2007)
Min Temperature 74 °F 76 °F 70 °F (1967)
Degree Days  
Heating Degree Days 0 0  
Month to date heating degree days 0 0  
Since 1 June heating degree days 0 0  
Since 1 July heating degree days 0 0  
Cooling Degree Days 18 18  
Month to date cooling degree days 381 360  
Year to date cooling degree days 2723 2311  
Since 1 June cooling degree days 1431 1434  
Growing Degree Days 33 (Base 50)    
Moisture  
Dew Point 74 °F    
Average Humidity 75    
Maximum Humidity 91    
Minimum Humidity 59    
Precipitation  
Precipitation 1.11 in 0.25 in 2.96 in (1891)
Month to date precipitation 3.92 4.99  
Year to date precipitation 39.81 30.94  
Sea Level Pressure  
Sea Level Pressure 29.98 in    
Wind  
Wind Speed 9 mph (SSW)    
Max Wind Speed 28 mph    
Max Gust Speed 36 mph    
Visibility 9 miles    
Events Rain , Thunderstorm    
T = Trace of Precipitation, MM = Missing Value Source: NWS Daily Summary

Daily Weather History Graph

Daily Weather History Graph

Search for Another Location

Airport or City:

Trip Planner

Search our weather history database for the weather conditions in past years. The results will help you decide how hot, cold, wet, or windy it might be!

Date:

Astronomy

Aug. 20, 2012 Rise Set
Actual Time 7:03 AM EDT 8:03 PM EDT
Civil Twilight 6:38 AM EDT 8:27 PM EDT
Nautical Twilight 6:10 AM EDT 8:56 PM EDT
Astronomical Twilight 5:40 AM EDT 9:25 PM EDT
Moon 9:59 AM EDT (8/20) 9:52 PM EDT (8/20)
Length of Visible Light 13h 48m
Length of Day
13h 00m
Waxing Crescent, 11% of the Moon is Illuminated
Aug 20
Waxing Crescent
Aug 24
First Quarter
Aug 31
Full
Sep 8
Last Quarter
Sep 15
New

Hourly Weather History & Observations

Time (EDT) Temp. Heat Index Dew Point Humidity Pressure Visibility Wind Dir Wind Speed Gust Speed Precip Events Conditions
12:53 AM 79.0 °F - 73.9 °F 84% 29.99 in 10.0 mi SSE 4.6 mph - N/A   Mostly Cloudy
1:53 AM 78.1 °F - 75.0 °F 90% 29.97 in 10.0 mi South 5.8 mph - N/A   Mostly Cloudy
2:53 AM 79.0 °F - 73.9 °F 84% 29.96 in 10.0 mi SE 4.6 mph - N/A   Overcast
3:53 AM 79.0 °F - 73.9 °F 84% 29.98 in 10.0 mi SSE 4.6 mph - N/A   Mostly Cloudy
4:53 AM 80.1 °F 84.5 °F 73.9 °F 81% 29.97 in 10.0 mi SSE 3.5 mph - N/A   Scattered Clouds
5:53 AM 79.0 °F - 75.0 °F 88% 29.98 in 10.0 mi SSE 4.6 mph - N/A   Scattered Clouds
6:53 AM 82.0 °F 88.6 °F 75.0 °F 79% 29.98 in 10.0 mi SSW 10.4 mph - N/A   Mostly Cloudy
7:53 AM 82.0 °F 89.4 °F 75.9 °F 82% 29.98 in 10.0 mi SSW 8.1 mph - N/A   Mostly Cloudy
8:53 AM 84.0 °F 93.7 °F 77.0 °F 79% 29.98 in 10.0 mi SSW 8.1 mph - N/A   Mostly Cloudy
9:53 AM 86.0 °F 96.0 °F 75.9 °F 72% 29.97 in 10.0 mi SSW 9.2 mph - N/A   Scattered Clouds
10:53 AM 88.0 °F 100.2 °F 77.0 °F 70% 29.96 in 10.0 mi SSW 9.2 mph - N/A   Scattered Clouds
11:53 AM 90.0 °F 101.3 °F 75.9 °F 63% 29.96 in 10.0 mi SSW 12.7 mph - N/A   Scattered Clouds
12:53 PM 89.1 °F 101.4 °F 77.0 °F 67% 29.95 in 10.0 mi South 16.1 mph 20.7 mph N/A   Scattered Clouds
1:53 PM 90.0 °F 101.3 °F 75.9 °F 63% 29.94 in 10.0 mi South 15.0 mph - N/A   Scattered Clouds
2:53 PM 90.0 °F 100.2 °F 75.0 °F 61% 29.94 in 10.0 mi South 15.0 mph 24.2 mph N/A   Scattered Clouds
3:53 PM 87.1 °F 95.4 °F 73.9 °F 65% 29.94 in 10.0 mi SSW 15.0 mph - N/A   Mostly Cloudy
4:53 PM 90.0 °F 99.0 °F 73.9 °F 59% 29.91 in 10.0 mi SSW 15.0 mph - N/A   Mostly Cloudy
5:53 PM 89.1 °F 98.0 °F 73.9 °F 61% 29.92 in 10.0 mi SW 16.1 mph 23.0 mph N/A   Mostly Cloudy
6:53 PM 86.0 °F 93.8 °F 73.9 °F 67% 29.94 in 10.0 mi SW 16.1 mph - N/A   Mostly Cloudy
7:53 PM 84.9 °F 93.3 °F 75.0 °F 72% 29.96 in 10.0 mi SW 15.0 mph - N/A   Mostly Cloudy
8:53 PM 84.9 °F 92.1 °F 73.9 °F 69% 29.97 in 10.0 mi SSW 9.2 mph - N/A   Mostly Cloudy
9:16 PM 84.2 °F 92.3 °F 75.2 °F 74% 29.97 in 10.0 mi SSW 10.4 mph - N/A Thunderstorm Thunderstorm
9:38 PM 75.2 °F - 73.4 °F 94% 30.02 in 1.5 mi NW 13.8 mph 35.7 mph 0.13 in Rain , Thunderstorm Heavy Thunderstorms and Rain
9:51 PM 75.2 °F - 73.4 °F 94% 30.01 in 3.0 mi NNW 8.1 mph - 0.30 in Rain , Thunderstorm Light Thunderstorms and Rain
9:53 PM 75.9 °F - 73.0 °F 91% 30.02 in 3.0 mi NNW 9.2 mph - 0.30 in Rain , Thunderstorm Light Thunderstorms and Rain
10:20 PM 75.2 °F - 73.4 °F 94% 30.05 in 0.8 mi Calm Calm - 0.32 in Rain , Thunderstorm Heavy Thunderstorms and Rain
10:29 PM 75.2 °F - 73.4 °F 94% 30.05 in 1.0 mi SE 5.8 mph - 0.51 in Rain , Thunderstorm Heavy Thunderstorms and Rain
10:50 PM 75.2 °F - 71.6 °F 89% 30.04 in 6.0 mi Calm Calm - 0.81 in Rain , Thunderstorm Light Thunderstorms and Rain
10:53 PM 75.0 °F - 72.0 °F 90% 30.04 in 9.0 mi Calm Calm - 0.81 in Rain , Thunderstorm Light Thunderstorms and Rain
11:15 PM 75.2 °F - 71.6 °F 89% 30.03 in 10.0 mi Calm Calm - 0.00 in   Mostly Cloudy
11:53 PM 77.0 °F - 73.0 °F 88% 30.01 in 10.0 mi Calm Calm - 0.00 in   Mostly Cloudy